Location: Anjeux
(47.8815°N, 6.2076°E)
Time: 14:52:00
(UTC+00:00)

ATLAS 3B R/B - Pass Details

Date: 05 March 2021
Orbit: 1006 x 1189 km, 63.8° (Epoch: 18 April)

Event Time Altitude Azimuth Distance (km) Brightness Sun altitude
Exits shadow 04:26:48 - 318° (NW) 3,696 5.2 -17.8°
Reaches altitude 10° 04:29:17 10° 326° (NW) 2,901 4.7 -17.4°
Maximum altitude 04:35:31 35° 31° (NNE) 1,695 4.1 -16.3°
Drops below altitude 10° 04:42:00 10° 96° (E) 3,015 6.3 -15.2°
Sets 04:45:02 0° 105° (ESE) 4,000 7.0 -14.7°
